Theta_e
315 315 314 314 315 315 312 311 310 309 309 309 308 309 308 309 311 309 309 309 309 307 307 308 309 310 310 309 309 310 310 309 308 306 306 306 303 303 304 302 300 300
315 315 315 314 315 315 313 313 312 310 309 309 310 310 309 311 312 311 309 309 309 307 308 308 308 308 308 308 308 307 306 306 307 311 306 304 303 303 303 302 302 299
315 314 313 312 314 314 313 314 313 311 310 310 311 311 311 313 312 309 309 309 308 308 308 308 308 307 307 307 308 308 306 305 306 306 307 304 304 304 304 303 302 301
315 315 313 313 313 314 313 313 312 311 310 311 311 312 313 314 311 309 310 315 309 308 307 307 309 308 307 307 307 306 306 306 308 307 307 306 306 305 305 305 304 303
315 315 314 313 314 314 312 313 312 311 311 312 311 312 314 313 310 310 311 309 309 308 308 307 307 307 307 307 306 306 306 306 305 305 305 304 305 306 305 305 302 302
317 317 316 315 314 314 313 313 313 312 312 311 311 313 313 313 311 311 311 309 309 310 309 308 308 308 306 306 305 306 306 306 305 304 305 304 304 305 307 303 303 301
316 316 315 315 315 314 314 314 314 314 314 313 312 312 313 312 311 311 311 310 310 311 309 308 308 308 306 306 306 304 305 304 304 305 305 303 304 303 305 303 304 303
316 318 318 318 315 315 314 314 313 315 315 314 312 312 314 312 312 312 312 311 310 310 309 309 308 309 307 306 307 304 305 306 305 305 304 303 303 302 302 304 302 302
318 317 317 317 317 315 314 314 314 316 316 314 312 312 314 313 312 312 312 311 311 310 309 309 309 309 308 307 307 306 305 306 306 304 304 303 302 301 302 303 301 302
317 317 317 317 316 315 314 317 317 316 317 314 313 313 313 312 312 312 312 311 311 310 309 309 309 309 308 308 307 307 305 306 306 303 303 303 304 302 301 302 301 299
315 316 315 314 314 314 315 316 316 316 317 316 314 314 313 313 313 312 312 312 312 312 311 310 310 310 309 309 308 308 307 306 306 304 303 304 304 303 304 302 302 300
314 314 314 314 315 316 315 315 316 316 316 316 314 313 313 314 313 312 313 312 311 312 312 313 313 312 312 310 309 309 308 307 307 305 304 304 304 303 304 303 302 301
313 313 312 315 317 317 317 317 316 315 315 314 313 312 313 313 312 313 313 313 313 313 313 314 314 315 314 312 311 310 309 308 307 306 305 304 304 304 303 303 302 302
312 313 313 315 316 317 318 318 317 316 316 314 314 312 313 313 313 313 313 312 313 312 312 311 311 313 314 314 314 313 311 309 308 307 306 304 304 304 303 304 303 303
311 312 312 314 316 316 314 314 315 315 316 315 313 312 314 314 314 314 313 313 312 311 310 310 310 312 313 313 313 312 312 310 310 308 307 305 304 304 303 302 302 302
310 312 312 312 314 315 317 316 315 316 317 315 315 314 314 313 312 313 312 312 311 309 309 310 311 313 312 308 308 312 311 311 310 309 308 306 306 304 303 302 302 301
308 311 311 311 311 312 313 314 314 314 312 312 312 312 314 313 313 312 311 310 309 308 309 310 312 314 307 303 300 301 309 310 309 308 308 307 306 305 303 302 300 301
308 307 308 309 309 308 309 310 309 309 309 310 311 312 313 312 310 310 308 308 309 308 307 308 309 303 294 296 297 297 299 307 309 309 308 307 307 305 303 301 300 300
302 304 303 303 304 304 304 305 304 305 306 306 307 307 307 310 309 308 308 307 308 307 307 305 305 293 293 295 296 296 296 299 307 309 307 307 305 305 302 301 300 300
301 301 301 301 301 301 301 301 302 302 303 304 304 304 305 305 305 305 305 306 306 307 301 297 296 295 292 295 296 297 296 297 306 307 307 306 306 306 303 300 301 300
300 300 300 299 299 299 299 299 299 299 299 299 301 301 301 302 303 302 303 302 300 298 295 294 294 293 293 293 293 295 296 299 305 305 304 305 304 303 302 301 302 302
299 298 298 297 298 298 298 297 297 298 298 299 297 297 299 300 300 301 300 298 297 294 291 290 291 293 292 293 294 294 296 299 299 300 300 299 299 300 301 300 299 299
299 298 298 297 297 297 296 297 298 299 297 297 296 294 296 297 298 298 299 299 296 292 290 289 290 292 292 293 293 294 295 297 297 298 298 298 299 299 299 299 299 299
298 298 298 297 296 296 296 296 296 297 297 297 298 297 296 296 297 298 298 298 296 292 292 290 289 292 292 293 293 293 295 295 295 296 295 296 295 296 298 298 297 304
297 298 297 297 297 296 296 295 296 297 297 296 296 295 296 295 297 296 296 294 294 293 297 291 289 292 292 292 293 294 295 294 294 293 292 291 293 294 294 292 292 294
297 298 297 297 297 296 296 297 296 296 297 296 293 294 294 293 295 295 294 293 293 292 292 289 290 289 292 292 293 293 294 294 293 292 290 289 291 293 292 290 291 291
Wind_Speed
10 8 9 8 9 9 8 8 7 8 8 7 8 7 7 5 4 5 5 5 5 5 5 5 5 5 5 5 5 5 5 5 5 4 5 6 5 6 6 5 5 5
11 9 8 8 8 7 8 9 9 9 9 8 8 8 6 6 5 6 5 5 5 5 5 5 5 6 5 6 5 6 4 4 4 2 6 5 4 5 5 5 4 3
9 7 7 10 10 10 10 8 9 8 8 8 8 8 7 6 7 5 5 5 5 4 4 5 5 5 5 5 5 5 5 4 4 3 5 4 4 5 4 4 4 4
10 8 8 9 9 9 8 8 7 5 4 6 8 9 8 7 7 7 6 6 5 4 4 4 5 4 5 5 5 5 5 5 4 4 4 3 3 4 4 4 4 3
9 6 4 7 9 8 6 6 8 7 7 8 6 7 9 8 8 8 7 6 6 5 4 4 3 5 4 4 5 5 4 4 4 4 4 4 2 3 2 4 4 4
11 11 9 8 10 10 9 8 7 7 7 7 9 7 8 9 9 9 8 8 7 7 6 5 4 4 4 4 4 4 4 5 4 4 4 4 3 2 3 3 3 3
12 11 11 9 9 11 11 10 8 8 9 10 7 8 8 9 9 8 8 8 8 7 7 5 5 4 4 4 5 4 3 4 4 4 4 3 4 2 2 4 3 3
10 7 8 7 8 12 11 10 9 10 10 7 10 9 9 9 9 8 8 8 7 7 6 5 5 5 5 4 5 4 4 3 5 4 4 4 2 4 3 3 3 3
10 8 8 9 7 5 7 5 6 9 9 11 10 9 8 9 8 8 8 8 7 7 6 5 5 5 5 5 5 5 5 4 4 5 5 5 4 4 4 3 3 3
9 8 7 7 8 4 5 7 6 3 5 10 10 8 8 5 6 6 5 6 6 5 5 5 5 5 4 5 6 6 6 6 5 5 5 5 6 5 4 4 5 4
7 6 6 2 5 6 4 4 5 10 5 2 5 8 6 7 4 5 6 6 7 6 5 5 6 5 6 6 6 6 6 6 6 5 6 6 6 6 6 6 5 5
4 3 6 10 12 11 13 12 14 7 4 7 7 4 3 5 8 5 7 6 6 6 6 7 7 7 7 7 7 7 6 6 5 6 6 6 6 6 6 6 6 6
10 7 4 5 10 9 9 6 5 4 8 3 8 4 6 9 3 3 6 7 6 7 7 7 7 6 5 3 3 3 3 4 5 6 6 6 6 6 6 6 6 6
10 10 9 6 7 10 8 9 8 5 3 1 7 2 1 5 2 8 7 3 7 7 7 7 5 4 4 4 4 5 5 5 6 6 6 6 6 6 6 7 7 7
6 6 9 11 9 9 5 1 7 7 7 6 5 11 10 8 9 10 9 5 4 5 4 2 3 4 5 5 5 6 6 7 7 7 8 8 7 6 6 6 6 6
7 6 6 7 5 11 13 13 11 11 12 13 14 11 8 8 8 8 8 9 7 3 1 2 3 3 4 8 8 6 6 6 6 8 8 8 8 7 6 6 7 6
2 5 7 9 10 10 9 9 8 6 4 4 3 4 6 7 7 7 7 6 4 2 1 1 2 3 6 7 8 9 5 5 6 7 8 9 9 9 9 8 6 6
4 4 6 6 6 5 6 6 5 4 5 5 4 5 5 5 7 6 4 2 1 1 1 1 1 5 8 8 6 7 7 7 6 7 8 9 9 8 6 6 7 6
4 6 7 7 7 6 5 4 4 3 1 1 2 1 2 0 1 1 1 1 1 1 0 1 2 6 7 6 6 7 8 8 7 7 8 9 6 6 8 9 8 7
6 6 6 6 5 5 5 5 5 5 3 1 1 2 1 0 0 1 2 1 1 1 1 3 2 5 4 4 6 8 9 6 5 7 7 5 8 10 7 5 7 8
5 6 5 5 5 5 5 5 4 4 4 3 4 4 4 5 4 2 1 2 3 4 4 4 3 5 6 8 8 6 4 2 1 1 2 1 1 2 3 4 4 4
5 5 5 5 5 4 5 4 4 3 3 2 3 3 2 2 2 5 5 4 4 5 5 4 1 3 7 9 10 9 9 6 5 5 5 5 4 4 4 4 4 5
5 5 5 5 4 4 3 2 2 1 1 1 2 3 3 2 1 2 5 6 5 4 6 4 2 3 7 9 9 10 8 6 6 6 6 6 4 4 4 4 2 2
4 5 5 4 4 4 3 2 1 0 1 1 1 1 3 3 1 2 2 5 6 5 5 6 3 1 6 10 10 9 8 6 5 7 5 5 5 5 5 6 6 9
2 5 5 5 5 4 4 3 3 3 1 1 2 2 1 1 2 2 2 2 3 5 7 7 5 3 5 9 10 9 7 5 6 6 6 4 5 5 5 5 5 6
1 1 3 5 5 4 3 4 4 2 2 1 2 3 3 3 3 3 3 3 2 3 3 4 6 3 3 8 10 10 9 6 4 7 5 4 4 4 5 5 5 5
Wind_Direction
158 170 166 168 168 169 168 172 177 165 166 158 152 163 159 166 144 128 135 125 126 123 121 115 113 104 102 95 95 91 92 96 93 94 90 87 83 86 84 87 78 98
172 174 172 167 167 173 176 179 180 172 170 166 161 159 163 146 159 143 143 135 127 129 125 112 115 123 118 113 111 104 94 94 89 98 101 93 101 92 89 96 106 94
171 177 179 171 175 182 182 186 179 181 170 172 159 157 160 155 155 151 147 141 135 136 122 115 112 122 125 125 121 116 118 110 112 105 104 118 110 98 106 106 98 101
177 179 191 180 174 184 186 178 177 175 168 163 171 167 156 160 153 152 153 146 142 148 142 123 125 127 128 132 121 116 130 138 149 125 104 91 109 109 110 104 105 90
165 176 210 200 175 176 174 184 179 175 178 184 173 166 153 154 154 155 154 154 149 153 147 125 112 123 129 130 127 122 126 129 141 128 124 131 161 128 143 116 110 108
172 181 191 207 180 172 175 185 188 179 180 172 180 175 167 159 160 160 160 155 160 156 157 145 133 132 132 132 124 133 144 138 165 133 131 147 175 172 147 124 120 116
182 186 187 200 189 178 175 187 187 182 181 183 168 177 167 166 164 166 162 161 159 162 160 163 149 150 142 143 140 144 161 165 153 143 144 169 158 179 159 142 150 156
171 150 166 187 208 181 180 187 186 183 184 170 175 181 175 170 168 167 163 159 161 163 165 164 162 165 155 147 148 156 176 183 159 155 159 174 171 181 197 185 156 174
148 159 171 180 178 193 176 154 174 187 178 176 178 177 182 169 170 166 164 162 160 165 163 167 171 173 170 164 165 168 176 192 180 170 172 180 186 210 206 184 158 180
156 158 160 177 186 117 102 140 128 261 205 180 173 169 169 173 153 149 146 151 152 153 161 169 176 182 180 184 185 178 180 188 189 180 183 187 192 197 196 183 188 183
161 161 157 137 32 43 143 177 200 165 181 148 176 163 157 142 142 137 139 144 150 158 162 170 187 186 190 200 198 194 191 189 188 190 191 195 196 196 191 188 190 192
111 104 107 86 79 57 9 12 10 1 99 104 12 352 108 136 144 149 148 152 152 159 164 175 181 189 195 202 205 198 197 195 191 191 200 198 199 197 194 193 190 200
84 67 43 88 108 105 101 72 51 29 341 60 86 28 8 13 354 155 163 153 166 160 171 175 182 187 193 208 224 208 199 204 204 205 206 206 204 198 196 193 193 195
95 98 89 74 86 102 127 137 145 149 194 281 109 136 220 122 89 328 312 219 182 184 190 188 176 165 158 164 184 200 199 212 219 213 211 214 212 206 195 194 193 192
39 78 99 109 108 88 65 88 139 163 173 150 168 199 178 180 180 192 218 253 250 224 233 251 213 199 188 196 200 210 206 212 210 215 216 213 212 210 201 194 191 185
149 126 106 92 124 155 174 188 193 188 176 172 181 192 184 181 181 180 195 210 216 236 238 247 256 256 223 212 214 213 217 217 213 213 214 213 208 204 202 194 184 178
140 140 143 169 185 176 179 186 182 184 167 193 207 147 157 176 177 187 203 202 196 207 250 259 282 293 307 294 275 260 246 231 219 220 212 213 210 196 191 188 190 182
146 133 147 176 170 170 153 177 160 150 151 149 141 152 186 173 168 176 179 171 146 141 190 251 283 11 4 351 322 293 267 256 248 230 218 213 211 198 175 169 177 176
138 149 151 148 154 152 143 120 125 112 119 149 221 231 101 81 333 33 270 151 138 193 213 29 35 8 351 333 302 277 249 223 238 233 221 215 185 143 164 183 181 163
137 131 126 127 127 121 109 99 91 101 110 100 84 66 88 157 150 218 242 230 184 168 85 62 56 348 325 304 295 281 272 228 221 219 214 184 175 187 176 170 167 165
113 117 121 128 116 100 86 78 78 73 68 75 105 125 137 143 153 150 129 106 95 95 80 53 11 359 50 49 37 28 26 345 339 65 79 85 53 66 133 180 165 146
115 108 105 98 86 74 72 62 62 68 71 27 63 45 55 103 96 96 126 124 107 105 107 96 31 37 80 76 73 70 66 59 64 66 69 67 73 89 103 136 155 141
133 125 121 107 98 98 92 93 82 46 53 45 54 17 16 360 13 122 141 142 145 143 118 108 72 48 82 87 88 88 81 76 82 82 82 85 83 96 95 66 48 126
165 144 144 138 127 143 163 174 134 63 87 137 92 2 6 3 129 105 142 147 145 149 144 131 133 69 103 94 88 86 97 98 93 92 79 76 66 35 51 59 28 33
200 151 149 148 158 177 167 161 180 197 181 98 81 80 65 120 103 112 91 83 129 144 149 130 141 141 116 107 102 103 99 99 97 90 81 62 80 73 51 62 55 40
123 157 157 158 178 183 173 178 184 143 156 132 96 99 101 96 98 88 88 57 56 101 111 124 130 122 108 108 105 102 104 98 92 96 99 86 74 95 84 52 57 63